TimeCET,TemperatureF,Dew PointF,Humidity,Sea Level PressureIn,VisibilityMPH,Wind Direction,Wind SpeedMPH,Gust SpeedMPH,PrecipitationIn,Events,Conditions,WindDirDegrees,DateUTC
6:00 AM,48.2,48.2,100,29.95,2.5,ESE,2.3,-,N/A,,Light Drizzle,120,2012-11-09 05:00:00
6:30 AM,48.2,48.2,100,29.95,1.9,Calm,Calm,-,N/A,,Light Drizzle,0,2012-11-09 05:30:00
6:39 AM,48.2,48.2,100,29.95,0.5,Calm,Calm,-,N/A,Fog-Rain,Fog,0,2012-11-09 05:39:00
7:00 AM,48.2,48.2,100,29.95,0.7,WNW,2.3,-,N/A,Fog-Rain,Patches of Fog,300,2012-11-09 06:00:00
7:30 AM,50.0,50.0,100,29.95,0.9,West,2.3,-,N/A,Fog-Rain,Patches of Fog,270,2012-11-09 06:30:00
8:00 AM,50.0,50.0,100,29.95,0.5,WSW,1.2,-,N/A,Fog,Patches of Fog,250,2012-11-09 07:00:00
8:30 AM,50.0,50.0,100,29.95,1.9,NW,4.6,-,N/A,,Drizzle,320,2012-11-09 07:30:00
9:00 AM,50.0,50.0,100,29.98,3.7,Variable,2.3,-,N/A,Fog,Patches of Fog,0,2012-11-09 08:00:00
9:30 AM,50.0,50.0,100,29.98,0.2,Variable,2.3,-,N/A,Fog,Fog,0,2012-11-09 08:30:00
10:30 AM,51.8,51.8,100,29.98,0.2,Variable,1.2,-,N/A,Fog,Fog,0,2012-11-09 09:30:00
11:00 AM,51.8,51.8,100,29.98,3.1,SW,1.2,-,N/A,Fog,Patches of Fog,230,2012-11-09 10:00:00
11:30 AM,51.8,51.8,100,29.98,5.6,West,3.5,-,N/A,Fog,Patches of Fog,260,2012-11-09 10:30:00
12:00 PM,53.6,53.6,100,29.98,6.2,Variable,2.3,-,N/A,Fog,Patches of Fog,0,2012-11-09 11:00:00
12:30 PM,53.6,53.6,100,29.98,6.2,West,3.5,-,N/A,,Mostly Cloudy,260,2012-11-09 11:30:00
1:00 PM,53.6,53.6,100,29.95,6.2,Variable,1.2,-,N/A,,Mostly Cloudy,0,2012-11-09 12:00:00
1:11 PM,53.6,53.6,100,29.95,3.7,Variable,1.2,-,N/A,Rain,Rain,0,2012-11-09 12:11:00
1:30 PM,53.6,53.6,100,29.95,3.7,Variable,1.2,-,N/A,Rain,Rain,0,2012-11-09 12:30:00
2:00 PM,53.6,53.6,100,29.95,6.2,Calm,Calm,-,N/A,,Mostly Cloudy,0,2012-11-09 13:00:00
2:30 PM,53.6,53.6,100,29.92,6.2,Variable,2.3,-,N/A,,Mostly Cloudy,0,2012-11-09 13:30:00
3:30 PM,53.6,51.8,94,29.92,6.2,North,6.9,-,N/A,Rain,Light Rain,360,2012-11-09 14:30:00
4:00 PM,53.6,53.6,100,29.89,5.0,North,5.8,-,N/A,Rain,Rain,360,2012-11-09 15:00:00
4:30 PM,51.8,51.8,100,29.92,6.2,NNW,9.2,-,N/A,Rain,Rain,330,2012-11-09 15:30:00
5:00 PM,51.8,51.8,100,29.92,6.2,NW,10.4,-,N/A,,Mostly Cloudy,320,2012-11-09 16:00:00
5:30 PM,50.0,50.0,100,29.92,1.9,Variable,1.2,-,N/A,Rain,Heavy Rain,0,2012-11-09 16:30:00
6:00 PM,50.0,50.0,100,29.92,6.2,NW,3.5,-,N/A,Rain,Rain,320,2012-11-09 17:00:00
6:30 PM,50.0,50.0,100,29.92,6.2,NNE,3.5,-,N/A,,Mostly Cloudy,20,2012-11-09 17:30:00
7:00 PM,50.0,50.0,100,29.92,6.2,Calm,Calm,-,N/A,,Mostly Cloudy,0,2012-11-09 18:00:00
7:30 PM,48.2,48.2,100,29.92,6.2,Calm,Calm,-,N/A,,Mostly Cloudy,0,2012-11-09 18:30:00
8:00 PM,48.2,48.2,100,29.92,6.2,Variable,1.2,-,N/A,,Mostly Cloudy,0,2012-11-09 19:00:00
8:30 PM,48.2,46.4,93,29.92,6.2,SSE,2.3,-,N/A,,Scattered Clouds,160,2012-11-09 19:30:00
9:00 PM,46.4,46.4,100,29.92,5.0,SSE,3.5,-,N/A,,Scattered Clouds,160,2012-11-09 20:00:00
9:21 PM,46.4,46.4,100,29.92,0.1,South,3.5,-,N/A,Fog,Fog,190,2012-11-09 20:21:00
9:30 PM,46.4,46.4,100,29.92,0.2,South,3.5,-,N/A,Fog,Fog,190,2012-11-09 20:30:00
10:00 PM,44.6,44.6,100,29.92,0.1,SW,2.3,-,N/A,Fog,Fog,220,2012-11-09 21:00:00
10:30 PM,44.6,44.6,100,29.92,0.1,SW,4.6,-,N/A,Fog,Fog,220,2012-11-09 21:30:00